timestamp,surface_pressure_avg,surface_temp_avg,battery_voltage,lat,long
2023-01-10 00:09:00+00:00,308.828,3.4,12.41,47.84626,-54.09684
2023-01-10 00:19:01+00:00,309.938,3.4,12.41,47.84626,-54.09684
2023-01-10 00:29:01+00:00,315.1747,3.4,12.41,47.84626,-54.09684
2023-01-10 00:39:01+00:00,324.5447,3.4,12.41,47.84626,-54.09684
2023-01-10 00:49:01+00:00,324.0347,3.3,12.41,47.84626,-54.09684
2023-01-10 00:59:01+00:00,322.3663,3.3,12.41,47.84626,-54.09684
2023-01-10 01:09:01+00:00,321.9347,3.3,12.41,47.84626,-54.09684
2023-01-10 01:19:00+00:00,325.0964,3.3,12.41,47.84626,-54.09684
2023-01-10 01:29:00+00:00,325.0913,3.29,12.41,47.84626,-54.09684
2023-01-10 01:39:00+00:00,329.0663,3.2,12.41,47.84626,-54.09684
2023-01-10 01:49:00+00:00,325.9163,3.1,12.41,47.84626,-54.09684
2023-01-10 01:59:00+00:00,318.0696,3.0,12.41,47.84626,-54.09684
2023-01-10 02:09:00+00:00,313.70799999999997,3.0,12.41,47.84626,-54.09684
2023-01-10 02:19:00+00:00,317.0046,3.0,12.41,47.84626,-54.09684
2023-01-10 02:29:00+00:00,314.908,3.0,12.41,47.84626,-54.09684
2023-01-10 02:39:00+00:00,311.483,3.0,12.41,47.84626,-54.09684
2023-01-10 02:49:00+00:00,311.6563,3.0,12.41,47.84626,-54.09684
2023-01-10 02:59:00+00:00,312.1413,3.0,12.41,47.84626,-54.09684
2023-01-10 03:09:00+00:00,307.3731,3.0,12.41,47.84626,-54.09684
2023-01-10 03:19:00+00:00,300.9547,3.0,12.41,47.84626,-54.09684
2023-01-10 03:29:00+00:00,305.5397,3.0,12.41,47.84626,-54.09684
2023-01-10 03:39:00+00:00,310.7014,3.0,12.41,47.84626,-54.09684
2023-01-10 03:49:00+00:00,307.608,3.0,12.41,47.84626,-54.09684
2023-01-10 03:59:00+00:00,298.9347,2.7,12.41,47.84626,-54.09684
2023-01-10 04:09:00+00:00,293.0613,2.5,12.41,47.84626,-54.09684
2023-01-10 04:19:00+00:00,292.9964,2.45,12.41,47.84626,-54.09684
2023-01-10 04:29:00+00:00,289.4464,2.4,12.41,47.84626,-54.09684
2023-01-10 04:39:00+00:00,281.3347,2.4,12.41,47.84626,-54.09684
2023-01-10 04:49:00+00:00,275.7797,2.4,12.41,47.84626,-54.09684
2023-01-10 04:59:00+00:00,271.4481,2.3,12.41,47.84626,-54.09684
2023-01-10 05:09:00+00:00,261.0297,2.2,12.41,47.84626,-54.09684
2023-01-10 05:19:00+00:00,246.7781,2.1,12.41,47.84626,-54.09684
2023-01-10 05:29:00+00:00,242.6881,2.0,12.41,47.84626,-54.09684
2023-01-10 05:39:00+00:00,242.0047,1.9,12.41,47.84626,-54.09684
2023-01-10 05:49:00+00:00,233.7781,1.7,12.41,47.84626,-54.09684
2023-01-10 05:59:00+00:00,223.9664,1.4,12.41,47.84626,-54.09684
2023-01-10 06:09:00+00:00,219.7448,1.4,12.41,47.84626,-54.09684
2023-01-10 06:19:00+00:00,219.9998,1.46,12.41,47.84626,-54.09684
2023-01-10 06:29:00+00:00,217.6898,1.52,12.41,47.84626,-54.09684
2023-01-10 06:39:00+00:00,211.7398,1.64,12.41,47.84626,-54.09684
2023-01-10 06:49:00+00:00,208.6731,1.7,12.41,47.84626,-54.09684
2023-01-10 06:59:00+00:00,209.1481,1.7,12.41,47.84626,-54.09684
2023-01-10 07:09:00+00:00,211.8931,1.5,12.41,47.84626,-54.09684
2023-01-10 07:19:00+00:00,215.0731,1.2,12.41,47.84626,-54.09684
2023-01-10 07:29:00+00:00,216.4831,0.95,12.41,47.84626,-54.09684
2023-01-10 07:39:00+00:00,218.7281,0.79,12.41,47.84626,-54.09684
2023-01-10 07:49:00+00:00,220.4114,0.67,12.41,47.84626,-54.09684
2023-01-10 07:59:00+00:00,219.9398,0.75,12.41,47.84626,-54.09684
2023-01-10 08:09:00+00:00,220.9131,0.5,12.41,47.84626,-54.09684
2023-01-10 08:19:00+00:00,227.3631,0.81,12.41,47.84626,-54.09684
2023-01-10 08:29:00+00:00,234.4864,2.13,12.41,47.84626,-54.09684
2023-01-10 08:39:00+00:00,238.1548,2.11,12.41,47.84626,-54.09684
2023-01-10 08:49:00+00:00,240.7598,2.59,12.41,47.84626,-54.09684
2023-01-10 08:59:00+00:00,246.6848,2.59,12.41,47.84626,-54.09684
2023-01-10 09:09:00+00:00,254.5347,2.68,12.41,47.84626,-54.09684
2023-01-10 09:19:00+00:00,257.4864,2.85,12.41,47.84626,-54.09684
2023-01-10 09:29:00+00:00,258.0848,2.9,12.41,47.84626,-54.09684
2023-01-10 09:39:00+00:00,261.7597,2.88,12.41,47.84626,-54.09684
2023-01-10 09:49:00+00:00,269.4114,2.89,12.41,47.84626,-54.09684
2023-01-10 09:59:00+00:00,273.4314,2.89,12.41,47.84626,-54.09684
2023-01-10 10:09:00+00:00,274.3197,2.9,12.41,47.84626,-54.09684
2023-01-10 10:19:00+00:00,277.5648,2.81,12.41,47.84626,-54.09684
2023-01-10 10:29:00+00:00,287.3748,2.8,12.41,47.84626,-54.09684
2023-01-10 10:39:00+00:00,292.6547,2.8,12.41,47.84626,-54.09684
2023-01-10 10:49:00+00:00,296.9581,2.78,12.41,47.84626,-54.09684
2023-01-10 10:59:00+00:00,302.6348,2.7,12.41,47.84626,-54.09684
2023-01-10 11:09:00+00:00,309.2396,2.6,12.41,47.84626,-54.09684
2023-01-10 11:19:00+00:00,312.7147,2.5,12.41,47.84626,-54.09684
2023-01-10 11:29:00+00:00,321.1813,2.4,12.41,47.84626,-54.09684
2023-01-10 11:39:00+00:00,326.5046,2.14,12.41,47.84626,-54.09684
2023-01-10 11:49:00+00:00,330.8813,1.6,12.41,47.84626,-54.09684
2023-01-10 11:59:00+00:00,340.9380000000001,1.4,12.41,47.84626,-54.09684
2023-01-10 12:09:00+00:00,353.25800000000015,1.59,12.41,47.84626,-54.09684
2023-01-10 12:19:00+00:00,356.6545,1.66,12.41,47.84626,-54.09684
2023-01-10 12:29:00+00:00,363.2513,1.85,12.41,47.84626,-54.09684
2023-01-10 12:39:00+00:00,373.8528,2.0,12.41,47.84626,-54.09684
2023-01-10 12:49:00+00:00,378.6996,2.09,12.41,47.84626,-54.09684
2023-01-10 12:59:00+00:00,377.1579,2.1,12.41,47.84626,-54.09684
2023-01-10 13:09:00+00:00,379.6445,2.1,12.41,47.84626,-54.09684
2023-01-10 13:19:00+00:00,381.81300000000016,2.19,12.41,47.84626,-54.09684
2023-01-10 13:29:00+00:00,375.3312,2.2,12.41,47.84626,-54.09684
2023-01-10 13:39:00+00:00,375.0529,2.22,12.41,47.84626,-54.09684
2023-01-10 13:49:00+00:00,382.7112,2.29,12.41,47.84626,-54.09684
2023-01-10 13:59:00+00:00,386.1761,2.3,12.41,47.84626,-54.09684
2023-01-10 14:09:00+00:00,384.7413,2.3,12.41,47.84626,-54.09684
2023-01-10 14:19:00+00:00,386.4196,2.37,12.41,47.84626,-54.09684
2023-01-10 14:29:00+00:00,389.3029,2.4,12.41,47.84626,-54.09684
2023-01-10 14:39:00+00:00,387.7847,2.4,12.41,47.84626,-54.09684
2023-01-10 14:49:00+00:00,385.5946,2.47,12.41,47.84626,-54.09684
2023-01-10 14:59:00+00:00,381.5447,2.5,12.41,47.84626,-54.09684
2023-01-10 15:09:00+00:00,373.4562,2.5,12.41,47.84626,-54.09684
2023-01-10 15:19:00+00:00,376.0913,2.48,12.41,47.84626,-54.09684
2023-01-10 15:29:00+00:00,376.708,2.46,12.41,47.84626,-54.09684
2023-01-10 15:39:00+00:00,368.9813,2.44,12.41,47.84626,-54.09684
2023-01-10 15:49:00+00:00,365.6512,2.4,12.41,47.84626,-54.09684
2023-01-10 15:59:00+00:00,367.3514,2.4,12.41,47.84626,-54.09684
2023-01-10 16:09:00+00:00,360.7413,2.47,12.41,47.84626,-54.09684
2023-01-10 16:19:01+00:00,352.2563,2.5,12.57,47.84626,-54.09684
2023-01-10 16:29:01+00:00,350.4229,2.5,12.57,47.84626,-54.09684
2023-01-10 16:39:01+00:00,343.3846,2.4,12.57,47.84626,-54.09684
2023-01-10 16:49:01+00:00,331.0179,2.4,12.57,47.84626,-54.09684
2023-01-10 16:59:01+00:00,325.1396,2.42,12.57,47.84626,-54.09684
2023-01-10 17:09:01+00:00,321.598,2.47,12.57,47.84626,-54.09684
2023-01-10 17:19:00+00:00,310.813,2.48,12.57,47.84626,-54.09684
2023-01-10 17:29:00+00:00,303.6964,2.48,12.57,47.84626,-54.09684
2023-01-10 17:39:00+00:00,299.348,2.48,12.57,47.84626,-54.09684
2023-01-10 17:49:00+00:00,292.618,2.45,12.57,47.84626,-54.09684
2023-01-10 17:59:00+00:00,283.1398,2.4,12.57,47.84626,-54.09684
2023-01-10 18:09:00+00:00,275.2614,2.4,12.57,47.84626,-54.09684
2023-01-10 18:19:00+00:00,266.7448,2.33,12.65,47.84626,-54.09684
2023-01-10 18:29:00+00:00,256.4264,2.4,12.65,47.84626,-54.09684
2023-01-10 18:39:00+00:00,248.6014,2.4,12.65,47.84626,-54.09684
2023-01-10 18:49:00+00:00,239.438,2.38,12.65,47.84626,-54.09684
2023-01-10 18:59:00+00:00,235.5848,2.39,12.65,47.84626,-54.09684
2023-01-10 19:09:00+00:00,233.6447,2.4,12.65,47.84626,-54.09684
2023-01-10 19:19:00+00:00,227.8214,2.4,12.65,47.84626,-54.09684
2023-01-10 19:29:00+00:00,222.7598,2.28,12.65,47.84626,-54.09684
2023-01-10 19:39:00+00:00,225.5698,2.2,12.65,47.84626,-54.09684
2023-01-10 19:49:00+00:00,230.6431,2.2,12.65,47.84626,-54.09684
2023-01-10 19:59:00+00:00,228.3831,2.29,12.65,47.84626,-54.09684
2023-01-10 20:09:00+00:00,231.1997,2.33,12.65,47.84626,-54.09684
2023-01-10 20:19:00+00:00,238.0331,2.38,12.49,47.84626,-54.09684
2023-01-10 20:29:00+00:00,239.3565,2.39,12.49,47.84626,-54.09684
2023-01-10 20:39:00+00:00,239.6314,2.39,12.49,47.84626,-54.09684
2023-01-10 20:49:00+00:00,242.9397,2.39,12.49,47.84626,-54.09684
2023-01-10 20:59:00+00:00,246.123,2.39,12.49,47.84626,-54.09684
2023-01-10 21:09:00+00:00,247.3581,2.38,12.49,47.84626,-54.09684
2023-01-10 21:19:01+00:00,248.3514,2.4,12.49,47.84626,-54.09684
2023-01-10 21:29:01+00:00,250.9331,2.4,12.49,47.84626,-54.09684
2023-01-10 21:39:01+00:00,253.1548,2.4,12.49,47.84626,-54.09684
2023-01-10 21:49:01+00:00,249.1364,2.4,12.49,47.84626,-54.09684
2023-01-10 21:59:01+00:00,250.8347,2.3,12.49,47.84626,-54.09684
2023-01-10 22:09:01+00:00,259.368,2.3,12.49,47.84626,-54.09684
2023-01-10 22:19:01+00:00,264.6347,2.41,12.41,47.84626,-54.09684
2023-01-10 22:29:01+00:00,261.3081,2.6,12.41,47.84626,-54.09684
2023-01-10 22:39:01+00:00,266.2681,2.6,12.41,47.84626,-54.09684
2023-01-10 22:49:01+00:00,274.9031,2.58,12.41,47.84626,-54.09684
2023-01-10 22:59:01+00:00,277.0664,2.77,12.41,47.84626,-54.09684
2023-01-10 23:09:01+00:00,281.3797,2.9,12.41,47.84626,-54.09684
2023-01-10 23:19:00+00:00,296.7531,2.9,12.41,47.84626,-54.09684
2023-01-10 23:29:00+00:00,306.658,2.9,12.41,47.84626,-54.09684
2023-01-10 23:39:00+00:00,301.668,2.92,12.41,47.84626,-54.09684
2023-01-10 23:49:00+00:00,303.8547,2.94,12.41,47.84626,-54.09684
2023-01-10 23:59:00+00:00,318.5914,2.97,12.41,47.84626,-54.09684
